Rome, OR

4:34 AM MDT on May 25, 2017 (GMT -0600)
Rome State

Weather History for KREO - November, 2013

Change the Weather History Date:

Saturday, November 9, 2013

  Actual Average Record
Temperature  
Mean Temperature 39 °F 39 °F  
Max Temperature 56 °F 53 °F 72 °F (2016)
Min Temperature 22 °F 26 °F 19 °F (2011)
Degree Days  
Heating Degree Days 26 26  
Month to date heating degree days 204 219  
Since 1 July heating degree days 935 976  
Cooling Degree Days 0 0  
Month to date cooling degree days 0 0  
Year to date cooling degree days 878 507  
Moisture  
Dew Point 27 °F    
Average Humidity 67    
Maximum Humidity 96    
Minimum Humidity 38    
Precipitation  
Precipitation 0.00 in 0.03 in 0.48 in (2002)
Month to date precipitation 0.00 0.26  
Year to date precipitation 5.14 7.73  
Sea Level Pressure  
Sea Level Pressure 30.18 in    
Wind  
Wind Speed 4 mph (SE)    
Max Wind Speed 12 mph    
Max Gust Speed 12 mph    
T = Trace of Precipitation, MM = Missing Value Source: NWS Daily Summary

Daily Weather History Graph

Daily Weather History Graph

Search for Another Location

Airport or City:

Trip Planner

Search our weather history database for the weather conditions in past years. The results will help you decide how hot, cold, wet, or windy it might be!

Date:

Astronomy

Nov. 09, 2013 Rise Set
Actual Time 6:35 AM PST 4:34 PM PST
Civil Twilight 6:05 AM PST 5:04 PM PST
Nautical Twilight 5:32 AM PST 5:38 PM PST
Astronomical Twilight 4:58 AM PST 6:11 PM PST
Moon 12:14 PM PST (11/9) 11:12 PM PST (11/9)
Length of Visible Light 10h 58m
Length of Day
9h 58m
Waxing Crescent, 45% of the Moon is Illuminated
Nov 9
Waxing Crescent
Nov 9
First Quarter
Nov 17
Full
Nov 25
Last Quarter
Dec 2
New

Hourly Weather History & Observations

Time (PST) Temp. Windchill Dew Point Humidity Pressure Visibility Wind Dir Wind Speed Gust Speed Precip Events Conditions
12:52 AM 24.1 °F 17.0 °F 21.0 °F 88% 30.16 in - SSW 5.8 mph - N/A   Unknown
1:52 AM 26.1 °F 19.4 °F 23.0 °F 88% 30.16 in - SSE 5.8 mph - N/A   Unknown
2:52 AM 25.0 °F 18.1 °F 21.9 °F 88% 30.17 in - SSE 5.8 mph - N/A   Unknown
3:52 AM 24.1 °F 17.0 °F 21.0 °F 88% 30.17 in - South 5.8 mph - N/A   Unknown
4:52 AM 26.1 °F - 21.9 °F 84% 30.19 in - Calm Calm - N/A   Unknown
5:52 AM 23.0 °F 17.0 °F 21.0 °F 92% 30.21 in - SSE 4.6 mph - N/A   Unknown
6:52 AM 24.1 °F 19.7 °F 19.9 °F 84% 30.22 in - SSW 3.5 mph - N/A   Unknown
7:52 AM 30.0 °F - 26.1 °F 85% 30.23 in - Calm Calm - N/A   Unknown
8:52 AM 37.0 °F - 28.0 °F 70% 30.23 in - Calm Calm - N/A   Unknown
9:52 AM 39.9 °F - 28.0 °F 63% 30.22 in - Calm Calm - N/A   Unknown
10:52 AM 45.0 °F - 27.0 °F 49% 30.20 in - Calm Calm - N/A   Unknown
11:52 AM 48.9 °F - 28.0 °F 44% 30.17 in - Calm Calm - N/A   Unknown
12:52 PM 54.0 °F - 30.0 °F 40% 30.14 in - Calm Calm - N/A   Unknown
1:52 PM 55.0 °F - 30.0 °F 38% 30.13 in - Variable 3.5 mph - N/A   Unknown
2:52 PM 55.9 °F - 30.0 °F 37% 30.13 in - Variable 3.5 mph - N/A   Unknown
3:52 PM 54.0 °F - 30.9 °F 41% 30.14 in - NE 5.8 mph - N/A   Unknown
4:52 PM 46.0 °F 42.5 °F 30.9 °F 56% 30.16 in - NE 6.9 mph - N/A   Unknown
5:52 PM 43.0 °F 37.7 °F 32.0 °F 65% 30.18 in - NE 9.2 mph - N/A   Unknown
6:52 PM 43.0 °F 37.2 °F 30.9 °F 62% 30.18 in - ENE 10.4 mph - N/A   Unknown
7:52 PM 39.0 °F 35.7 °F 30.0 °F 70% 30.19 in - ENE 4.6 mph - N/A   Unknown
8:52 PM 37.0 °F 31.0 °F 30.0 °F 76% 30.19 in - East 8.1 mph - N/A   Unknown
9:52 PM 34.0 °F 29.8 °F 28.9 °F 82% 30.20 in - SSE 4.6 mph - N/A   Unknown
10:52 PM 33.1 °F 26.9 °F 28.9 °F 85% 30.19 in - South 6.9 mph - N/A   Unknown
11:52 PM 32.0 °F 24.8 °F 28.0 °F 85% 30.18 in - SSW 8.1 mph - N/A   Unknown